CAPE
0 0 0 0 0 0 0 0 0 0 0 0 0 0 0 0 0 0 0 0 78 0 287 1290 1735 1673 1432 1397 1340 1254 1197 1101 586 517 366 24 0 0 0 0 0 0 0 0 0 0 8 87 5
0 0 0 0 0 1 6 0 0 0 0 0 0 0 0 0 0 0 0 0 129 150 488 795 1846 1742 1783 1667 1515 1421 1430 1316 926 683 594 180 0 0 0 23 18 22 14 9 4 1 6 102 178
0 0 0 2 0 2 8 0 0 0 0 0 0 0 0 0 0 0 0 0 10 97 97 571 1915 1823 1948 1824 1795 1772 1773 1481 933 534 399 314 250 273 98 85 120 87 67 45 17 4 2 22 140
0 0 0 0 0 0 0 0 0 0 0 0 0 0 0 0 0 0 0 0 0 0 145 1389 1946 1964 2195 1804 1950 1927 1633 1267 796 290 294 38 29 270 198 83 83 93 102 85 72 11 8 14 175
0 0 0 0 1 0 0 0 0 0 0 0 0 0 0 0 0 0 0 0 0 0 398 1225 1987 1822 1304 799 938 1106 551 204 109 108 63 36 47 61 89 111 139 124 120 127 164 141 108 216 239
0 0 0 0 0 0 0 0 0 0 0 0 0 0 0 0 0 0 0 0 0 0 0 39 805 945 994 1117 1117 824 269 0 0 0 0 0 0 13 21 50 45 75 43 85 185 308 425 383 216
0 0 0 0 0 0 0 0 0 0 0 0 0 0 0 0 0 0 0 0 0 0 0 0 7 301 1132 1089 1063 235 0 0 0 0 0 0 0 0 2 7 15 22 82 122 356 478 481 543 388
0 0 0 0 0 0 0 0 0 0 0 0 0 0 0 0 0 0 0 0 0 0 0 0 0 0 0 9 338 1 0 0 0 0 0 0 0 0 0 1 6 56 184 304 648 547 433 593 529
0 0 0 0 0 0 0 0 0 0 0 0 0 0 0 0 0 0 0 0 0 0 0 0 0 0 0 0 0 40 22 10 7 7 0 0 0 0 0 2 39 296 442 450 608 665 578 754 510
2 0 0 0 0 0 0 0 0 0 0 0 0 0 0 0 0 0 0 0 0 0 0 0 0 0 0 0 0 0 0 4 0 0 0 0 0 0 0 0 22 235 494 680 705 707 668 415 26
0 0 0 0 0 0 0 0 0 0 0 0 0 0 0 0 0 0 0 0 0 0 0 0 0 0 0 0 0 0 0 0 0 0 0 0 0 0 0 0 0 0 236 257 520 457 414 267 17
3 0 0 0 0 0 0 0 0 0 0 0 0 0 0 0 0 0 0 0 0 0 0 0 0 0 4 5 0 0 0 0 0 0 0 0 0 0 0 0 0 0 28 144 270 149 168 102 9
2 0 0 0 0 0 0 0 0 0 0 0 0 0 0 0 0 0 0 0 0 0 0 0 0 17 94 51 0 0 0 0 0 0 0 0 0 2 0 0 0 0 0 105 167 199 136 33 6
0 0 0 0 0 0 0 0 0 0 0 0 0 0 0 0 0 0 0 0 0 0 0 0 19 36 25 3 0 0 0 0 0 0 0 1 12 2 0 0 0 0 0 24 98 155 241 150 0
0 0 0 0 0 0 0 0 0 0 0 0 0 0 0 0 0 0 0 0 0 0 0 0 0 0 0 0 0 0 0 0 0 0 9 22 33 17 0 10 15 0 0 4 129 79 156 177 69
0 0 0 0 0 0 0 0 0 0 0 0 0 0 0 0 0 0 0 0 0 0 0 0 20 0 13 0 19 0 0 0 5 0 8 15 46 31 25 40 53 1 0 2 111 110 173 219 156
0 0 0 0 0 0 0 0 0 0 0 0 0 0 0 0 0 0 0 0 0 0 0 0 0 0 42 0 0 0 65 16 7 0 0 0 2 21 34 4 40 2 16 0 93 88 154 151 171
0 0 0 0 0 0 0 0 0 0 0 0 0 0 1 0 0 0 0 0 0 0 0 0 0 0 4 3 55 0 44 57 29 34 0 0 0 0 54 60 51 6 0 5 0 91 75 121 57
0 0 0 0 0 0 0 0 0 0 0 0 15 1 1 0 0 0 0 0 0 0 3 51 48 0 3 127 45 101 13 2 24 25 16 0 0 0 9 74 39 72 1 3 44 37 74 71 19
0 0 0 0 0 2 0 0 0 14 0 9 0 0 0 0 0 0 6 0 0 0 0 153 3 19 151 134 168 136 114 60 12 34 44 28 13 2 23 110 62 107 54 104 90 78 24 16 98
0 0 0 0 0 0 0 0 0 0 1 0 0 0 0 0 0 2 9 0 0 0 0 17 9 151 331 222 207 22 0 19 19 18 44 19 76 51 93 76 36 110 49 74 95 34 35 56 51
0 0 0 0 0 0 0 0 0 0 0 0 0 0 0 0 0 0 26 0 0 0 0 26 67 203 317 149 195 120 4 11 13 6 38 29 55 59 96 75 94 58 90 93 96 26 18 23 134
0 0 0 0 0 0 0 0 0 0 0 0 0 0 0 0 0 6 23 0 0 0 0 0 77 251 202 230 148 24 34 24 4 0 0 2 4 92 146 174 57 71 91 96 164 58 28 47 81
0 0 0 0 1 0 0 0 0 0 0 0 0 0 0 0 0 3 17 0 0 0 0 83 88 238 211 70 70 0 40 36 0 0 0 9 63 135 204 153 177 64 64 129 149 52 25 0 34
0 0 0 0 0 0 0 0 0 0 0 0 0 6 0 0 0 11 15 0 0 0 0 7 13 19 26 43 34 15 1 1 0 0 0 1 43 76 122 161 260 280 92 214 112 68 50 27 71
0 0 0 0 0 0 0 0 0 0 0 0 0 4 2 0 0 0 0 0 0 0 0 6 0 0 0 38 10 0 3 13 0 4 16 5 48 88 160 233 281 275 269 350 157 53 31 31 111
0 0 0 0 0 0 0 0 0 0 0 0 5 24 0 0 0 0 0 0 0 0 0 0 0 0 0 12 0 0 12 74 91 86 64 34 86 144 127 206 195 276 304 169 143 161 138 126 24
0 0 5 0 0 0 0 0 0 0 0 0 67 32 5 0 0 0 0 0 0 0 0 0 0 0 0 0 0 0 54 80 136 119 68 65 46 5 101 264 271 269 160 215 217 158 21 54 21
0 0 0 0 0 0 0 0 0 0 0 4 107 60 8 0 0 0 0 0 0 0 0 0 0 0 0 0 0 0 0 33 85 51 56 19 47 90 160 165 167 174 269 182 177 115 23 0 0
0 0 0 0 0 0 0 0 0 12 46 26 149 55 3 0 0 0 0 0 0 0 0 0 0 0 0 0 0 0 0 30 66 63 24 20 12 62 133 197 224 216 99 12 65 83 37 4 0
CIN
-0 -0 -0 -0 -0 -0 -0 -0 -24 -0 -0 -0 -0 -0 -0 -0 -0 -0 -0 -0 -310 -0 -309 -147 -85 -74 -59 -34 -14 -1 -0 -0 -0 -0 -12 -144 -0 -0 -0 -0 -0 -0 -0 -0 -0 -0 -0 -0 -0
-0 -0 -0 -0 -0 -24 -65 -0 -0 -0 -0 -0 -0 -0 -0 -0 -0 -0 -0 -0 -270 -307 -299 -208 -102 -85 -58 -37 -13 -0 -0 -0 -0 -0 -0 -57 -0 -0 -0 -2 -2 -0 -0 -0 -0 -0 -0 -4 -0
-0 -0 -0 -56 -0 -96 -36 -0 -0 -0 -0 -0 -0 -0 -0 -0 -0 -0 -0 -0 -98 -282 -386 -269 -95 -69 -28 -7 -0 -0 -0 -0 -0 -1 -9 -16 -27 -38 -0 -0 -0 -0 -0 -0 -0 -0 -0 -2 -0
-0 -0 -0 -0 -0 -0 -0 -0 -0 -0 -0 -0 -0 -0 -0 -0 -0 -0 -0 -0 -0 -0 -224 -136 -73 -41 -5 -1 -0 -0 -0 -1 -1 -15 -9 -1 -0 -6 -9 -0 -0 -0 -0 -0 -0 -0 -0 -0 -0
-0 -0 -0 -0 -139 -13 -0 -0 -0 -0 -0 -0 -0 -0 -0 -0 -0 -0 -0 -0 -0 -0 -249 -151 -70 -63 -65 -61 -31 -9 -17 -41 -108 -98 -115 -0 -0 -0 -0 -0 -31 -21 -29 -27 -1 -2 -10 -0 -0
-0 -0 -0 -0 -0 -0 -0 -0 -0 -0 -0 -0 -0 -0 -0 -0 -0 -0 -0 -0 -0 -0 -0 -161 -176 -143 -103 -55 -32 -33 -39 -0 -0 -0 -0 -0 -0 -0 -0 -12 -0 -96 -38 -50 -3 -0 -0 -0 -1
-0 -0 -0 -0 -0 -0 -0 -0 -0 -0 -0 -0 -0 -0 -0 -0 -0 -0 -0 -0 -0 -0 -0 -0 -80 -224 -64 -47 -30 -106 -0 -0 -0 -0 -0 -0 -0 -0 -0 -0 -0 -0 -68 -7 -0 -0 -0 -0 -0
-0 -0 -0 -0 -0 -0 -0 -0 -0 -0 -0 -0 -0 -0 -0 -0 -0 -0 -0 -0 -0 -0 -0 -0 -0 -0 -0 -347 -91 -138 -0 -0 -0 -0 -0 -0 -0 -0 -0 -0 -0 -58 -0 -0 -0 -0 -0 -0 -0
-0 -0 -0 -0 -0 -0 -0 -0 -0 -0 -0 -0 -0 -0 -0 -0 -0 -0 -0 -0 -0 -0 -0 -0 -0 -0 -0 -0 -0 -79 -248 -220 -36 -28 -0 -0 -0 -0 -0 -2 -20 -0 -0 -0 -0 -0 -1 -0 -0
-80 -0 -0 -0 -0 -0 -0 -0 -0 -0 -0 -0 -0 -0 -0 -0 -0 -0 -0 -0 -0 -0 -0 -0 -0 -0 -0 -0 -0 -0 -0 -69 -0 -0 -0 -0 -0 -0 -0 -0 -2 -1 -2 -0 -0 -0 -1 -0 -67
-0 -0 -0 -0 -0 -0 -0 -0 -0 -0 -0 -0 -0 -0 -0 -0 -0 -0 -0 -0 -0 -0 -0 -0 -0 -0 -0 -0 -0 -0 -0 -0 -0 -0 -0 -0 -0 -0 -0 -0 -0 -0 -18 -34 -4 -5 -7 -18 -92
-97 -0 -0 -0 -0 -0 -0 -0 -0 -0 -0 -0 -0 -0 -0 -0 -0 -0 -0 -0 -0 -0 -0 -0 -0 -0 -386 -402 -0 -0 -0 -0 -0 -0 -0 -0 -0 -0 -0 -0 -0 -0 -42 -53 -37 -68 -49 -60 -111
-83 -0 -0 -0 -0 -0 -0 -0 -0 -0 -0 -0 -0 -0 -0 -0 -0 -0 -0 -0 -0 -0 -0 -0 -0 -440 -279 -242 -0 -0 -0 -0 -0 -0 -0 -4 -0 -91 -0 -0 -0 -0 -0 -43 -44 -48 -65 -96 -122
-0 -0 -0 -1 -0 -0 -0 -0 -0 -0 -0 -0 -0 -0 -0 -0 -0 -0 -0 -0 -0 -0 -0 -0 -423 -374 -317 -94 -0 -0 -0 -0 -0 -0 -0 -10 -77 -123 -0 -0 -0 -0 -0 -41 -77 -59 -58 -61 -16
-0 -0 -0 -0 -0 -0 -0 -0 -0 -0 -0 -0 -0 -0 -0 -0 -0 -0 -0 -0 -0 -0 -0 -0 -0 -0 -0 -0 -0 -0 -0 -0 -0 -0 -61 -37 -34 -68 -0 -62 -46 -0 -0 -29 -68 -77 -69 -46 -115
-0 -0 -0 -0 -0 -0 -0 -0 -0 -0 -0 -0 -0 -0 -0 -0 -0 -0 -0 -0 -0 -0 -0 -0 -333 -0 -188 -0 -155 -0 -0 -0 -141 -0 -46 -44 -50 -44 -59 -45 -43 -9 -0 -21 -56 -70 -45 -44 -64
-0 -0 -0 -0 -0 -0 -0 -0 -0 -0 -0 -0 -0 -0 -0 -0 -0 -0 -0 -0 -0 -0 -0 -0 -57 -0 -221 -0 -0 -0 -70 -110 -30 -13 -0 -0 -15 -52 -45 -46 -56 -39 -74 -0 -58 -67 -59 -66 -65
-0 -0 -0 -0 -0 -0 -0 -0 -0 -0 -0 -0 -0 -0 -67 -0 -0 -0 -0 -0 -0 -0 -0 -0 -0 -0 -263 -8 -134 -0 -86 -73 -70 -73 -0 -0 -0 -0 -28 -43 -57 -13 -7 -93 -0 -60 -85 -74 -86
-0 -0 -0 -0 -0 -0 -0 -0 -0 -0 -0 -0 -48 -43 -55 -0 -0 -0 -0 -0 -0 -0 -371 -391 -323 -0 -254 -116 -122 -71 -90 -8 -59 -60 -56 -0 -0 -0 -61 -36 -72 -56 -107 -31 -92 -93 -65 -78 -140
-0 -0 -0 -0 -0 -6 -0 -0 -0 -33 -6 -44 -0 -0 -0 -0 -0 -70 -694 -0 -0 -0 -0 -341 -355 -156 -123 -116 -74 -68 -56 -55 -65 -49 -43 -47 -57 -32 -63 -44 -81 -66 -71 -65 -64 -52 -74 -139 -89
-0 -0 -0 -0 -0 -0 -0 -0 -0 -0 -14 -0 -0 -0 -0 -0 -0 -431 -630 -0 -0 -0 -0 -388 -238 -154 -53 -58 -86 -69 -0 -65 -60 -45 -47 -69 -23 -34 -31 -62 -106 -67 -80 -123 -80 -84 -51 -63 -95
-0 -0 -0 -0 -0 -0 -0 -0 -0 -0 -0 -0 -0 -0 -0 -0 -0 -0 -611 -0 -0 -0 -0 -350 -231 -120 -50 -70 -77 -71 -18 -33 -31 -40 -44 -57 -49 -21 -30 -54 -56 -73 -94 -82 -75 -99 -82 -98 -33
-0 -0 -0 -0 -0 -0 -0 -0 -0 -0 -0 -0 -0 -0 -0 -0 -0 -635 -657 -82 -0 -0 -22 -0 -197 -75 -63 -55 -60 -109 -58 -56 -29 -0 -0 -84 -84 -39 -18 -32 -70 -72 -96 -77 -75 -102 -112 -138 -101
-0 -0 -0 -0 -32 -0 -0 -0 -0 -0 -0 -0 -0 -0 -0 -0 -0 -241 -584 -0 -0 -0 -0 -245 -177 -58 -35 -73 -89 -0 -71 -57 -0 -0 -0 -70 -32 -24 -22 -32 -43 -79 -74 -63 -89 -148 -134 -0 -79
-0 -0 -0 -0 -0 -0 -0 -0 -0 -0 -0 -0 -0 -305 -0 -0 -0 -546 -550 -0 -0 -0 -0 -345 -213 -158 -124 -68 -80 -37 -6 -3 -0 -0 -0 -28 -32 -38 -33 -40 -36 -50 -85 -57 -93 -127 -117 -94 -76
-0 -0 -0 -0 -0 -0 -0 -0 -0 -0 -0 -0 -0 -304 -153 -0 -0 -0 -0 -0 -0 -0 -36 -329 -0 -0 -0 -76 -87 -0 -7 -62 -0 -37 -42 -68 -39 -43 -31 -35 -48 -56 -62 -66 -86 -104 -103 -105 -88
-0 -0 -0 -0 -0 -0 -0 -1 -0 -0 -0 -0 -250 -280 -0 -0 -0 -0 -0 -0 -0 -0 -0 -0 -0 -0 -0 -116 -0 -0 -57 -55 -48 -32 -33 -66 -35 -40 -73 -59 -73 -60 -73 -97 -94 -70 -69 -85 -110
-0 -0 -6 -0 -0 -0 -0 -0 -0 -0 -0 -42 -185 -229 -137 -0 -0 -0 -0 -0 -0 -0 -0 -0 -0 -0 -0 -0 -0 -0 -37 -63 -52 -50 -51 -48 -51 -107 -79 -59 -58 -52 -83 -69 -76 -60 -95 -69 -80
-0 -1 -0 -0 -0 -0 -0 -0 -0 -0 -0 -148 -177 -244 -193 -0 -0 -0 -0 -0 -0 -0 -0 -0 -0 -0 -0 -0 -0 -0 -0 -60 -65 -67 -68 -88 -62 -46 -47 -70 -84 -72 -61 -67 -65 -69 -105 -0 -0
-0 -0 -0 -0 -0 -0 -0 -0 -0 -100 -117 -155 -194 -253 -339 -0 -0 -0 -0 -0 -0 -0 -0 -0 -0 -0 -0 -0 -0 -0 -0 -50 -57 -65 -95 -94 -75 -51 -49 -48 -48 -60 -104 -125 -94 -63 -71 -120 -0
Wind_Speed
7 5 2 2 3 2 6 9 6 5 4 4 7 7 9 6 5 6 5 12 16 14 12 14 18 18 16 15 13 11 11 11 12 11 11 9 10 10 9 7 6 5 6 8 10 10 10 10 8
5 6 3 3 3 1 6 10 16 2 7 7 8 5 10 4 6 10 7 11 16 15 12 13 19 19 17 16 14 12 11 12 12 11 10 11 11 12 12 10 10 9 9 9 11 11 11 8 9
4 6 2 4 4 6 5 5 21 9 5 5 4 6 7 9 9 9 8 12 16 14 14 13 18 16 13 12 11 11 12 12 11 12 11 11 12 13 13 13 13 12 13 12 11 12 11 11 8
2 3 4 1 10 13 4 8 8 2 5 7 6 7 5 6 6 10 10 10 8 11 11 13 14 12 10 10 9 9 9 8 9 10 9 9 11 11 11 13 15 15 15 15 13 12 12 10 10
3 3 4 6 13 16 2 8 8 4 8 3 6 5 7 3 11 10 9 7 13 8 9 9 14 13 12 11 10 8 6 5 3 4 7 9 11 12 12 14 14 15 16 16 16 14 12 9 7
3 1 2 7 15 9 4 5 9 7 6 4 7 6 5 7 9 9 10 8 12 12 10 9 15 15 14 13 12 12 10 8 8 8 8 9 11 13 14 15 16 17 18 18 17 15 13 9 5
4 2 7 11 16 14 4 8 1 12 5 3 5 4 5 8 10 9 9 9 9 11 13 9 10 13 15 13 11 11 12 11 10 8 8 9 11 13 15 16 17 18 19 19 18 16 15 9 7
4 2 11 13 12 18 3 10 9 7 3 9 9 5 6 7 10 10 9 9 9 9 8 9 7 5 6 6 13 15 13 14 12 9 9 9 9 11 13 14 16 18 18 18 18 16 15 10 8
13 7 12 16 16 17 10 5 5 6 2 2 7 8 12 13 10 8 7 5 5 7 6 7 8 8 7 7 8 12 16 14 11 9 8 2 3 6 9 9 13 17 17 17 15 17 15 11 10
10 6 19 15 17 16 10 7 6 6 8 6 6 8 14 13 9 9 7 8 5 7 6 7 8 7 6 2 4 5 6 5 5 5 3 3 3 4 7 10 13 11 13 17 14 15 16 13 4
16 15 17 18 19 16 15 10 9 10 4 2 10 11 12 9 8 9 9 6 9 8 6 6 7 7 5 1 2 2 3 2 2 4 4 4 3 4 4 3 3 2 6 2 7 7 5 5 5
19 21 21 22 19 15 7 7 12 10 7 4 9 16 10 9 10 10 8 8 8 8 8 8 8 6 4 3 0 3 1 1 3 4 5 4 3 4 3 2 3 2 3 4 4 4 5 6 7
23 22 22 21 18 10 5 9 16 16 5 2 8 11 11 10 9 8 7 10 9 9 8 8 6 5 4 3 3 2 2 3 4 3 4 4 5 4 3 3 3 3 2 4 4 5 5 7 6
21 17 19 19 16 8 8 15 16 11 7 8 8 9 9 10 11 7 9 8 9 8 8 7 5 5 4 5 4 4 3 5 4 4 4 6 4 4 3 3 3 3 4 4 6 5 4 4 5
19 21 22 18 12 14 13 17 15 10 8 10 10 10 10 10 13 14 12 11 10 8 9 7 4 3 4 4 5 4 4 4 4 4 4 4 3 5 4 4 4 4 4 5 5 4 3 3 5
17 16 16 10 12 20 10 20 15 10 9 9 10 10 10 13 14 10 13 12 10 10 9 6 3 3 2 1 2 2 3 3 3 4 2 3 3 4 5 4 4 4 4 4 4 3 3 4 4
9 12 14 16 18 22 11 19 17 11 8 8 10 9 11 10 6 12 14 13 10 9 9 6 4 1 1 3 3 3 2 2 3 2 2 3 4 5 4 4 3 5 4 4 4 3 3 3 3
12 9 13 19 23 18 14 13 8 10 10 11 9 9 9 10 15 16 15 13 10 9 9 7 3 2 1 3 3 2 1 2 2 2 2 4 4 5 4 2 3 3 4 4 3 4 2 2 4
14 14 20 22 19 17 6 21 9 10 6 7 10 9 8 10 10 15 13 12 10 9 9 6 4 2 1 1 2 1 1 2 1 2 3 6 5 6 3 3 4 3 5 4 4 3 4 4 4
17 19 22 23 19 4 15 20 13 8 7 9 10 10 4 12 13 13 13 8 9 9 9 6 4 3 1 1 1 1 2 3 2 2 2 2 5 6 4 4 4 4 4 5 3 4 2 2 2
21 20 21 19 21 16 5 5 5 5 5 7 12 8 16 21 18 14 14 11 9 9 8 7 5 4 2 2 1 3 3 3 3 1 1 3 2 3 3 3 4 4 4 7 5 5 5 3 1
21 18 21 21 16 9 1 6 4 6 10 10 12 10 16 18 15 14 13 10 9 8 8 7 6 4 3 3 3 3 1 2 2 1 2 3 4 2 3 4 4 5 3 5 5 5 4 5 4
22 15 19 21 15 7 5 2 6 4 8 14 4 11 14 17 19 16 13 11 9 8 8 7 7 5 5 3 3 3 3 2 2 2 3 2 2 2 3 3 5 5 4 4 7 6 6 4 3
24 17 16 16 11 4 6 7 9 6 9 5 3 10 16 14 13 13 12 11 8 8 8 7 7 4 2 4 6 6 5 5 4 4 3 2 2 2 3 4 4 4 4 5 5 6 7 5 4
20 14 9 4 3 7 5 4 10 10 7 7 10 13 12 15 16 15 14 10 9 9 8 7 8 5 2 6 6 6 4 5 4 3 3 4 2 1 3 3 3 3 4 4 5 6 6 6 4
19 15 8 7 5 5 6 8 13 14 10 9 14 14 13 14 14 13 14 10 10 9 9 8 8 6 4 6 5 5 4 2 2 1 2 2 2 2 3 4 5 4 6 5 5 4 4 6 5
16 13 13 5 1 2 5 7 6 7 8 10 14 13 12 13 13 14 13 11 9 9 9 8 8 6 7 7 4 5 4 3 3 1 3 2 2 2 4 5 6 5 6 5 6 5 7 8 7
22 7 7 1 8 6 5 6 7 7 10 10 11 11 10 10 12 12 12 10 8 9 7 7 8 8 7 7 5 4 5 3 3 3 4 4 3 3 4 6 6 6 6 10 9 9 9 10 7
12 11 4 8 7 6 2 8 8 12 9 14 12 13 14 13 12 12 10 9 10 8 8 7 7 8 7 6 5 5 4 5 6 5 4 5 4 3 6 5 6 7 9 11 10 11 10 12 9
14 11 8 9 6 5 6 7 9 8 12 13 13 13 10 11 11 11 11 10 11 9 8 8 6 8 7 6 5 5 6 6 5 6 4 4 6 6 5 6 7 7 9 9 11 11 9 11 12
Wind_Direction
171 173 202 279 32 131 261 291 325 38 63 95 87 83 94 103 95 181 204 112 124 144 163 170 170 173 180 186 188 192 199 207 217 223 231 227 236 251 262 271 280 276 275 275 271 270 271 266 263
192 183 251 267 165 295 281 316 309 128 151 124 122 134 89 63 92 127 113 140 149 153 158 172 178 180 185 188 189 194 206 215 220 227 227 229 237 245 254 259 269 269 264 264 268 262 264 269 266
289 243 323 189 214 216 243 274 328 347 134 142 150 97 114 142 120 144 162 138 145 164 167 171 179 181 185 191 194 201 213 221 221 233 228 232 236 243 248 255 259 265 267 260 260 264 257 264 262
234 288 283 223 256 262 246 264 274 336 314 175 127 111 55 156 119 148 160 152 142 114 143 159 167 168 174 189 198 215 226 229 232 238 234 240 248 249 247 252 256 258 261 264 259 258 256 259 269
228 258 231 270 265 267 337 268 249 345 312 96 138 109 105 68 114 130 130 121 108 105 119 135 147 152 165 181 188 193 162 161 196 249 258 258 258 258 259 259 257 258 255 256 254 247 245 247 268
299 158 303 276 287 311 230 58 354 326 324 17 52 109 163 142 125 152 139 135 121 140 141 153 157 165 172 180 181 180 180 191 212 230 245 254 260 260 259 258 258 259 256 255 248 239 238 230 242
212 301 263 279 291 311 315 61 180 279 244 98 126 107 150 158 171 152 131 127 123 138 153 162 169 178 177 181 177 181 190 203 215 226 246 260 266 269 267 264 261 255 251 252 247 231 230 212 219
229 222 277 278 286 287 298 181 199 228 132 175 145 147 187 209 158 134 137 147 163 167 174 172 157 147 162 174 185 197 199 213 210 213 223 239 246 271 274 271 268 260 252 250 247 226 226 207 207
249 254 262 267 276 280 319 342 325 332 203 215 188 146 157 152 145 141 164 172 179 191 147 117 132 121 132 152 207 205 215 220 213 214 237 212 203 246 264 276 280 248 250 243 233 217 218 212 208
228 234 251 258 267 279 301 325 319 350 309 259 79 92 137 150 163 160 178 187 164 108 112 112 113 110 91 32 34 196 239 206 192 211 227 202 225 251 272 271 281 277 247 228 218 209 213 209 186
238 239 253 257 261 275 286 327 306 305 312 341 168 150 156 167 163 179 197 173 149 131 120 124 108 107 108 90 342 333 343 124 191 221 223 207 219 250 269 288 282 270 268 217 206 197 201 188 195
248 242 245 255 260 260 248 290 292 275 245 298 124 163 163 170 184 183 188 150 120 115 114 106 108 113 139 141 320 289 123 222 246 239 237 194 223 241 250 247 268 246 227 195 185 187 178 209 214
244 247 252 259 266 243 254 262 263 267 258 146 147 148 171 187 187 195 141 131 128 113 111 109 110 132 160 160 219 244 268 271 270 251 271 212 206 226 234 258 246 237 227 185 192 194 191 210 222
256 260 262 259 267 254 259 264 261 252 241 158 167 169 173 182 183 137 129 138 117 125 117 119 120 161 164 193 220 233 237 246 248 265 260 280 188 208 219 240 241 243 213 203 189 200 206 214 210
269 272 273 270 270 266 254 260 256 247 211 203 197 204 201 187 163 174 160 147 138 135 124 128 185 174 200 240 235 234 246 239 244 254 258 261 219 218 222 237 237 235 215 203 183 194 209 220 219
280 280 266 259 270 267 240 259 244 234 213 235 215 210 192 210 187 164 151 131 130 117 121 130 105 92 72 355 295 255 241 246 256 252 241 244 271 232 225 229 237 220 190 176 177 170 202 223 189
256 257 267 266 249 261 241 253 250 195 220 234 233 220 213 213 146 145 139 133 131 128 122 116 110 14 112 330 304 274 273 276 276 283 228 234 258 274 237 216 247 201 173 170 173 196 176 191 186
230 257 255 256 256 255 261 302 191 209 202 230 247 230 224 181 159 145 136 134 132 127 118 122 151 188 92 314 306 286 330 297 257 282 220 213 242 263 261 233 239 171 158 160 155 185 190 192 177
233 241 249 255 253 246 338 269 257 219 204 225 244 246 233 155 137 133 132 131 125 122 126 152 168 213 119 347 315 317 254 273 235 240 246 218 225 241 254 207 215 184 156 166 171 163 186 228 157
242 243 258 272 277 173 219 253 247 202 213 218 234 246 227 123 131 131 131 125 131 135 142 156 173 153 67 158 257 212 267 268 225 238 296 280 235 225 236 202 203 189 139 142 175 179 116 134 146
235 235 248 258 279 285 263 306 304 260 246 273 252 220 140 146 147 148 143 141 140 142 145 160 164 140 131 33 23 340 352 334 353 336 327 299 285 181 190 196 172 182 150 161 191 159 126 119 353
238 228 235 251 261 261 273 285 294 308 300 297 282 137 143 150 149 148 147 144 143 145 148 144 145 165 135 83 65 79 63 305 279 283 12 357 10 201 171 160 176 177 157 156 151 140 123 125 130
238 226 229 239 248 244 277 296 250 252 293 283 196 147 156 154 152 155 144 140 146 139 146 146 144 154 162 121 103 75 23 304 335 16 61 6 344 334 173 151 146 162 154 143 136 132 125 119 130
230 236 239 239 236 236 217 181 264 233 234 187 138 125 147 137 135 130 139 138 138 137 139 142 151 178 150 125 78 75 45 29 39 22 25 1 351 310 169 155 133 142 114 155 163 136 135 132 156
218 218 237 299 243 211 216 286 252 260 231 171 139 126 135 136 139 140 144 142 135 145 150 154 153 165 168 111 90 104 82 66 61 6 360 9 356 80 117 131 136 140 145 164 159 141 147 159 157
222 198 195 209 183 246 242 239 258 227 213 129 139 139 130 133 142 143 142 141 145 150 155 166 160 160 143 116 113 126 98 148 115 355 357 30 39 118 150 167 166 146 147 164 128 116 123 118 115
232 205 190 169 276 204 229 230 340 118 129 119 130 126 135 140 143 144 145 143 148 149 167 164 157 160 139 128 129 144 145 153 151 125 22 54 74 62 81 134 141 154 145 116 101 103 99 87 89
209 184 149 64 196 250 294 296 227 155 175 124 126 136 134 137 139 144 144 144 152 153 164 147 144 150 156 154 156 149 174 153 108 83 72 65 84 59 56 105 111 122 118 107 105 98 99 106 104
222 209 142 133 148 169 233 273 231 168 149 142 143 148 147 150 144 146 144 145 149 148 148 144 144 139 138 121 132 111 101 98 90 85 76 69 80 86 53 80 111 111 111 114 106 112 107 116 109
213 178 154 174 220 200 179 261 149 136 143 140 145 147 139 142 142 147 142 141 147 152 152 154 158 145 152 148 127 117 102 95 96 92 93 67 63 64 84 73 77 107 106 115 113 114 119 123 124